Regional Weather Roundup
Issued by NWS

Home | Current Version | Previous Version | Text Only | Print | Product List | Glossary Off
Versions: 1 2 3 4 5 6 7 8 9 10 11 12 13 14 15 16 17 18 19 20 21 22 23 24 25 26 27 28 29 30 31 32 33 34 35 36 37 38 39 40 41 42 43 44 45 46 47 48 49 50

000
ASUS43 KBIS 081710
RWRND

NORTH DAKOTA REGIONAL WEATHER ROUNDUP
NATIONAL WEATHER SERVICE BISMARCK ND
1100 AM CST THU DEC 08 2016

NOTE: "FAIR" INDICATES FEW OR NO CLOUDS BELOW 12,000 FEET WITH NO
SIGNIFICANT WEATHER AND/OR OBSTRUCTIONS TO VISIBILITY.


NDZ001>003-009>011-017-081800-
NORTHWEST NORTH DAKOTA

CITY           SKY/WX    TMP DP  RH WIND       PRES   REMARKS
WILLISTON      CLOUDY    -2  -9  72 W9        30.69S WCI -18
MINOT          SUNNY     -1  -7  75 W18       30.62S WCI -22
MINOT AFB      SUNNY     -4 -10  75 NW18      30.62R WCI -26
$$

NDZ018>021-031>035-040>046-081800-
SOUTHWEST NORTH DAKOTA

CITY           SKY/WX    TMP DP  RH WIND       PRES   REMARKS
BISMARCK       CLOUDY     3  -3  76 W13       30.67R HAZE    WCI -14
DICKINSON      CLOUDY    -3  -8  79 W17       30.57S WCI -24
GARRISON         N/A     -1  -8  72 NW18      30.62R WCI -22
HETTINGER ARPT CLOUDY    -2  -8  76 NW15      30.61R WCI -22
$$

NDZ004>008-012>016-024-026-027-054-081800-
NORTHEAST NORTH DAKOTA

CITY           SKY/WX    TMP DP  RH WIND       PRES   REMARKS
GRAND FORKS    LGT SNOW  16  11  80 NW21      30.52R BLWGSNOWWCI  -1
GRND FRKS AFB  LGT SNOW  14   9  79 NW17      30.52R WCI  -3
DEVILS LAKE    CLOUDY     4   0  83 W20       30.55R WCI -17
$$

NDZ022-023-025-028>030-036>039-047>053-081800-
SOUTHEAST NORTH DAKOTA

CITY           SKY/WX    TMP DP  RH WIND       PRES   REMARKS
FARGO          LGT SNOW  16   9  74 NW20      30.52R WCI  -1
JAMESTOWN      CLOUDY     5   0  78 NW26      30.55R HAZE    WCI -18
$$





USA.gov is the U.S. government's official web portal to all federal, state and local government web resources and services.